Location: Turtle Rock Observatory
(36.6913°N, 81.9708°W)
Time: 21:17:41
(UTC-04:00)

TITAN 4B R/B - Visible Passes

Search period start: 30 July 2014 00:00
Search period end: 09 August 2014 00:00
Orbit: 469 x 663 km, 57.0° (Epoch: 21 June)

Date Brightness Start Highest point End Pass type
(mag) Time Alt. Az. Time Alt. Az. Time Alt. Az.
30 Jul 3.1 03:28:10 31° E 03:28:10 31° E 03:31:26 10° ENE visible
30 Jul 2.8 05:04:10 20° W 05:06:41 33° NW 05:11:00 10° NNE visible
31 Jul 2.7 03:28:08 42° ENE 03:28:08 42° ENE 03:31:35 10° NE visible
31 Jul 3.3 05:04:08 16° W 05:06:47 24° NW 05:10:41 10° NNE visible
01 Aug 2.5 03:28:03 50° NE 03:28:03 50° NE 03:31:36 10° NE visible
01 Aug 3.7 05:04:03 12° WNW 05:06:56 19° NNW 05:10:17 10° NNE visible
02 Aug 2.5 03:27:55 48° NNE 03:27:55 48° NNE 03:31:31 10° NE visible
02 Aug 4.0 05:04:31 10° WNW 05:07:08 15° NNW 05:09:46 10° N visible
03 Aug 2.8 03:27:44 40° N 03:27:44 40° N 03:31:21 10° NNE visible
03 Aug 4.2 05:05:49 10° NW 05:07:24 11° NNW 05:08:58 10° N visible
04 Aug 3.1 03:27:30 32° NNW 03:27:30 32° NNW 03:31:06 10° NNE visible
05 Aug 4.5 01:51:15 12° NE 01:51:15 12° NE 01:51:39 10° NE visible
05 Aug 3.5 03:27:14 24° NNW 03:27:14 24° NNW 03:30:47 10° NNE visible
06 Aug 4.4 01:50:56 14° NE 01:50:56 14° NE 01:51:40 10° NE visible
06 Aug 3.8 03:26:54 19° NW 03:27:00 19° NNW 03:30:23 10° NNE visible
07 Aug 4.3 01:50:34 16° NE 01:50:34 16° NE 01:51:34 10° NE visible
07 Aug 4.1 03:26:33 14° NW 03:27:11 15° NNW 03:29:52 10° N visible
08 Aug 4.3 01:50:10 17° NNE 01:50:10 17° NNE 01:51:23 10° NNE visible
08 Aug 4.4 03:26:08 11° NW 03:27:25 12° NNW 03:29:05 10° N visible
